New Baltimore, MI

2:57 PM EST on December 07, 2016 (GMT -0500)
Selfridge Angb

Weather History for KMTC - October, 2012

Change the Weather History Date:

Monday, October 22, 2012

  Actual Average Record
Temperature  
Mean Temperature 52 °F -  
Max Temperature 66 °F 56 °F 76 °F (1979)
Min Temperature 37 °F 40 °F 28 °F (1969)
Degree Days  
Heating Degree Days 14    
Growing Degree Days 2 (Base 50)    
Moisture  
Dew Point 48 °F    
Average Humidity 83    
Maximum Humidity 100    
Minimum Humidity 60    
Precipitation  
Precipitation 0.00 in - - ()
Sea Level Pressure  
Sea Level Pressure 30.06 in    
Wind  
Wind Speed 3 mph (SSE)    
Max Wind Speed 8 mph    
Max Gust Speed -    
Visibility 9 miles    
Events Rain    
Averages and records for this station are not official NWS values.
T = Trace of Precipitation, MM = Missing Value Source: NWS Daily Summary

Daily Weather History Graph

Daily Weather History Graph

Search for Another Location

Airport or City:

Trip Planner

Search our weather history database for the weather conditions in past years. The results will help you decide how hot, cold, wet, or windy it might be!

Date:

Astronomy

Oct. 22, 2012 Rise Set
Actual Time 7:53 AM EDT 6:37 PM EDT
Civil Twilight 7:24 AM EDT 7:06 PM EDT
Nautical Twilight 6:51 AM EDT 7:39 PM EDT
Astronomical Twilight 6:19 AM EDT 8:11 PM EDT
Moon 2:52 PM EDT (10/22) 12:30 AM EDT (10/22)
Length of Visible Light 11h 41m
Length of Day
10h 44m
First Quarter, 56% of the Moon is Illuminated
Oct 22
First Quarter
Oct 29
Full
Nov 6
Last Quarter
Nov 13
New
Nov 20
First Quarter

Hourly Weather History & Observations

Time (EDT) Temp. Dew Point Humidity Pressure Visibility Wind Dir Wind Speed Gust Speed Precip Events Conditions
4:14 AM 41.0 °F 39.2 °F 93% 30.07 in 12.0 mi Calm Calm - N/A   Clear
4:55 AM 37.4 °F 37.4 °F 100% 30.11 in 12.0 mi Calm Calm - N/A   Clear
5:55 AM 39.2 °F 39.2 °F 100% 30.11 in 6.0 mi Calm Calm - N/A   Clear
6:30 AM 39.2 °F 39.2 °F 100% 30.07 in 6.0 mi Calm Calm - N/A   Clear
6:55 AM 41.0 °F 39.2 °F 93% 30.11 in 6.0 mi Calm Calm - N/A   Clear
7:05 AM 41.0 °F 39.2 °F 93% 30.07 in 7.0 mi Calm Calm - N/A   Clear
7:55 AM 39.2 °F 39.2 °F 100% 30.11 in 3.0 mi Calm Calm - N/A   Partly Cloudy
8:55 AM 42.8 °F 42.8 °F 100% 30.12 in 5.0 mi Calm Calm - N/A   Partly Cloudy
9:55 AM 53.6 °F 51.8 °F 94% 30.12 in 7.0 mi South 6.9 mph - N/A   Partly Cloudy
10:55 AM 57.2 °F 50.0 °F 77% 30.12 in 7.0 mi South 6.9 mph - N/A   Partly Cloudy
11:55 AM 57.2 °F 50.0 °F 77% 30.11 in 10.0 mi SE 6.9 mph - N/A   Mostly Cloudy
12:55 PM 59.0 °F 51.8 °F 77% 30.09 in 10.0 mi East 6.9 mph - N/A   Mostly Cloudy
1:55 PM 64.4 °F 51.8 °F 64% 30.07 in 10.0 mi SSE 8.1 mph - N/A   Mostly Cloudy
2:55 PM 66.2 °F 51.8 °F 60% 30.06 in 10.0 mi SSE 8.1 mph - N/A   Mostly Cloudy
3:55 PM 64.4 °F 51.8 °F 64% 30.06 in 10.0 mi SE 4.6 mph - N/A   Overcast
4:55 PM 64.4 °F 51.8 °F 64% 30.04 in 10.0 mi SSE 8.1 mph - N/A   Overcast
5:55 PM 62.6 °F 51.8 °F 68% 30.03 in 10.0 mi SSE 5.8 mph - N/A   Overcast
6:55 PM 60.8 °F 51.8 °F 72% 30.02 in 10.0 mi SE 6.9 mph - N/A   Overcast
7:55 PM 59.0 °F 51.8 °F 77% 30.01 in 12.0 mi SE 5.8 mph - N/A   Overcast
8:55 PM 57.2 °F 51.8 °F 82% 30.02 in 12.0 mi South 5.8 mph - N/A   Overcast
9:30 PM 57.2 °F 51.8 °F 82% 29.99 in 12.0 mi South 6.9 mph - N/A Rain Light Rain Showers
9:50 PM 57.2 °F 53.6 °F 88% 29.98 in 12.0 mi South 4.6 mph - N/A   Mostly Cloudy
9:55 PM 57.2 °F 53.6 °F 88% 30.01 in 12.0 mi SSE 4.6 mph - N/A   Mostly Cloudy
10:55 PM 57.2 °F 53.6 °F 88% 30.00 in 12.0 mi SSE 3.5 mph - N/A Rain Light Rain